Time,TemperatureF,DewpointF,PressureIn,WindDirection,WindDirectionDegrees,WindSpeedMPH,WindSpeedGustMPH,Humidity,HourlyPrecipIn,Conditions,Clouds,dailyrainin,SoftwareType,DateUTC
2013-02-13 00:02:00,29.0,28.0,-100.00,SSW,210,3.0,5.0,96,0.00,,,-99.99,,2013-02-13 06:02:00,
2013-02-13 00:11:00,28.0,28.0,-100.00,South,190,2.0,5.0,98,0.00,,,-99.99,,2013-02-13 06:11:00,
2013-02-13 00:21:00,28.0,28.0,-100.00,SSW,205,3.0,4.0,99,0.00,,,-99.99,,2013-02-13 06:21:00,
2013-02-13 00:32:00,28.0,28.0,-100.00,SW,225,2.0,3.0,99,0.00,,,-99.99,,2013-02-13 06:32:00,
2013-02-13 00:42:00,28.0,28.0,-100.00,SW,225,2.0,3.0,99,0.00,,,-99.99,,2013-02-13 06:42:00,
2013-02-13 00:51:00,27.0,27.0,-100.00,SW,215,2.0,4.0,99,0.00,,,-99.99,,2013-02-13 06:51:00,
2013-02-13 01:02:00,27.0,27.0,-100.00,SW,215,2.0,4.0,99,0.00,,,-99.99,,2013-02-13 07:02:00,
2013-02-13 01:11:00,26.0,26.0,-100.00,SW,220,4.0,4.0,99,0.00,,,-99.99,,2013-02-13 07:11:00,
2013-02-13 01:21:00,26.0,26.0,-100.00,SSW,210,4.0,4.0,99,0.00,,,-99.99,,2013-02-13 07:21:00,
2013-02-13 01:31:00,25.0,25.0,-100.00,SSW,205,3.0,4.0,99,0.00,,,-99.99,,2013-02-13 07:31:00,
2013-02-13 01:41:00,25.0,25.0,-100.00,SSW,205,3.0,4.0,99,0.00,,,-99.99,,2013-02-13 07:41:00,
2013-02-13 01:51:00,26.0,26.0,-100.00,SSW,210,1.0,2.0,99,0.00,,,-99.99,,2013-02-13 07:51:00,
2013-02-13 02:01:00,26.0,26.0,-100.00,SSW,210,1.0,2.0,99,0.00,,,-99.99,,2013-02-13 08:01:00,
2013-02-13 02:11:00,25.0,25.0,-100.00,SSW,210,2.0,2.0,99,0.00,,,-99.99,,2013-02-13 08:11:00,
2013-02-13 02:21:00,25.0,25.0,-100.00,SSW,195,1.0,2.0,99,0.00,,,-99.99,,2013-02-13 08:21:00,
2013-02-13 02:32:00,29.0,29.0,-100.00,WNW,295,4.0,7.0,99,0.00,,,-99.99,,2013-02-13 08:32:00,
2013-02-13 02:43:00,29.0,29.0,-100.00,WNW,295,4.0,7.0,99,0.00,,,-99.99,,2013-02-13 08:43:00,
2013-02-13 02:52:00,31.0,29.0,-100.00,NW,320,6.0,12.0,93,0.00,,,-99.99,,2013-02-13 08:52:00,
2013-02-13 03:01:00,31.0,29.0,-100.00,NW,320,6.0,12.0,93,0.00,,,-99.99,,2013-02-13 09:01:00,
2013-02-13 03:11:00,31.0,29.0,-100.00,WNW,300,6.0,10.0,94,0.00,,,-99.99,,2013-02-13 09:11:00,
2013-02-13 03:21:00,30.0,29.0,-100.00,WNW,290,4.0,8.0,94,0.00,,,-99.99,,2013-02-13 09:21:00,
2013-02-13 03:31:00,28.0,28.0,-100.00,NW,315,1.0,3.0,99,0.00,,,-99.99,,2013-02-13 09:31:00,
2013-02-13 03:41:00,28.0,28.0,-100.00,NW,315,1.0,3.0,99,0.00,,,-99.99,,2013-02-13 09:41:00,
2013-02-13 03:51:00,29.0,29.0,-100.00,West,280,1.0,6.0,99,0.00,,,-99.99,,2013-02-13 09:51:00,
2013-02-13 04:01:00,29.0,29.0,-100.00,West,280,1.0,6.0,99,0.00,,,-99.99,,2013-02-13 10:01:00,
2013-02-13 04:11:00,29.0,29.0,-100.00,WNW,285,4.0,6.0,99,0.00,,,-99.99,,2013-02-13 10:11:00,
2013-02-13 04:21:00,28.0,28.0,-100.00,West,260,1.0,4.0,99,0.00,,,-99.99,,2013-02-13 10:21:00,
2013-02-13 04:32:00,29.0,29.0,-100.00,WNW,300,5.0,7.0,99,0.00,,,-99.99,,2013-02-13 10:32:00,
2013-02-13 04:41:00,29.0,29.0,-100.00,WNW,300,5.0,7.0,99,0.00,,,-99.99,,2013-02-13 10:41:00,
2013-02-13 04:51:00,29.0,29.0,-100.00,NW,315,6.0,8.0,99,0.00,,,-99.99,,2013-02-13 10:51:00,
2013-02-13 05:01:00,29.0,29.0,-100.00,NW,315,6.0,8.0,99,0.00,,,-99.99,,2013-02-13 11:01:00,
2013-02-13 05:11:00,29.0,29.0,-100.00,WNW,300,6.0,9.0,99,0.00,,,-99.99,,2013-02-13 11:11:00,
2013-02-13 05:22:00,29.0,29.0,-100.00,NW,315,7.0,9.0,99,0.00,,,-99.99,,2013-02-13 11:22:00,
2013-02-13 05:32:00,28.0,28.0,-100.00,NW,305,7.0,10.0,99,0.00,,,-99.99,,2013-02-13 11:32:00,
2013-02-13 05:42:00,28.0,28.0,-100.00,NW,305,7.0,10.0,99,0.00,,,-99.99,,2013-02-13 11:42:00,
2013-02-13 05:52:00,28.0,28.0,-100.00,NW,305,6.0,10.0,99,0.00,,,-99.99,,2013-02-13 11:52:00,
2013-02-13 06:02:00,28.0,28.0,-100.00,NW,305,6.0,10.0,99,0.00,,,-99.99,,2013-02-13 12:02:00,
2013-02-13 06:11:00,28.0,28.0,-100.00,NW,315,4.0,8.0,99,0.00,,,-99.99,,2013-02-13 12:11:00,
2013-02-13 06:21:00,28.0,28.0,-100.00,WNW,290,4.0,9.0,99,0.00,,,-99.99,,2013-02-13 12:21:00,
2013-02-13 06:32:00,27.0,27.0,-100.00,NW,320,6.0,9.0,99,0.00,,,-99.99,,2013-02-13 12:32:00,
2013-02-13 06:42:00,27.0,27.0,-100.00,NW,320,6.0,9.0,99,0.00,,,-99.99,,2013-02-13 12:42:00,
2013-02-13 06:52:00,27.0,27.0,-100.00,West,280,3.0,8.0,99,0.00,,,-99.99,,2013-02-13 12:52:00,
2013-02-13 07:02:00,27.0,27.0,-100.00,West,280,3.0,8.0,99,0.00,,,-99.99,,2013-02-13 13:02:00,
2013-02-13 07:11:00,27.0,27.0,-100.00,WNW,295,4.0,7.0,99,0.00,,,-99.99,,2013-02-13 13:11:00,
2013-02-13 07:21:00,27.0,27.0,-100.00,WNW,295,3.0,6.0,99,0.00,,,-99.99,,2013-02-13 13:21:00,
2013-02-13 07:32:00,27.0,27.0,-100.00,WNW,300,5.0,7.0,99,0.00,,,-99.99,,2013-02-13 13:32:00,
2013-02-13 07:41:00,27.0,27.0,-100.00,WNW,300,5.0,7.0,99,0.00,,,-99.99,,2013-02-13 13:41:00,
2013-02-13 07:51:00,28.0,28.0,-100.00,WNW,290,3.0,5.0,99,0.00,,,-99.99,,2013-02-13 13:51:00,
2013-02-13 08:01:00,28.0,28.0,-100.00,WNW,290,3.0,5.0,99,0.00,,,-99.99,,2013-02-13 14:01:00,
2013-02-13 08:11:00,28.0,28.0,-100.00,NW,310,6.0,8.0,98,0.00,,,-99.99,,2013-02-13 14:11:00,
2013-02-13 08:21:00,28.0,28.0,-100.00,NW,310,7.0,11.0,98,0.00,,,-99.99,,2013-02-13 14:21:00,
2013-02-13 08:31:00,29.0,28.0,-100.00,WNW,300,6.0,8.0,95,0.00,,,-99.99,,2013-02-13 14:31:00,
2013-02-13 08:41:00,29.0,28.0,-100.00,WNW,300,6.0,8.0,95,0.00,,,-99.99,,2013-02-13 14:41:00,
2013-02-13 08:52:00,30.0,29.0,-100.00,NW,320,4.0,7.0,93,0.00,,,-99.99,,2013-02-13 14:52:00,
2013-02-13 09:01:00,30.0,29.0,-100.00,NW,320,4.0,7.0,93,0.00,,,-99.99,,2013-02-13 15:01:00,
2013-02-13 09:11:00,31.0,29.0,-100.00,NW,325,7.0,12.0,92,0.00,,,-99.99,,2013-02-13 15:11:00,
2013-02-13 09:21:00,31.0,29.0,-100.00,NW,325,9.0,14.0,91,0.00,,,-99.99,,2013-02-13 15:21:00,
2013-02-13 09:32:00,32.0,29.0,-100.00,NW,305,6.0,9.0,89,0.00,,,-99.99,,2013-02-13 15:32:00,
2013-02-13 09:42:00,33.0,29.0,-100.00,NW,320,7.0,12.0,87,0.00,,,-99.99,,2013-02-13 15:42:00,
2013-02-13 09:51:00,33.0,30.0,-100.00,NW,325,9.0,13.0,86,0.00,,,-99.99,,2013-02-13 15:51:00,
2013-02-13 10:01:00,33.0,30.0,-100.00,NW,325,9.0,13.0,86,0.00,,,-99.99,,2013-02-13 16:01:00,
2013-02-13 10:11:00,34.0,30.0,-100.00,NW,315,9.0,13.0,85,0.00,,,-99.99,,2013-02-13 16:11:00,
2013-02-13 10:21:00,34.0,30.0,-100.00,NNW,330,6.0,14.0,86,0.00,,,-99.99,,2013-02-13 16:21:00,
2013-02-13 10:31:00,36.0,30.0,-100.00,WNW,290,9.0,12.0,78,0.00,,,-99.99,,2013-02-13 16:31:00,
2013-02-13 10:42:00,36.0,30.0,-100.00,WNW,290,9.0,12.0,78,0.00,,,-99.99,,2013-02-13 16:42:00,
2013-02-13 10:51:00,38.0,30.0,-100.00,WNW,285,6.0,11.0,74,0.00,,,-99.99,,2013-02-13 16:51:00,
2013-02-13 11:01:00,38.0,30.0,-100.00,WNW,285,6.0,11.0,74,0.00,,,-99.99,,2013-02-13 17:01:00,
2013-02-13 11:11:00,38.0,30.0,-100.00,NW,325,9.0,12.0,73,0.00,,,-99.99,,2013-02-13 17:11:00,
2013-02-13 11:21:00,38.0,30.0,-100.00,NW,305,7.0,12.0,71,0.00,,,-99.99,,2013-02-13 17:21:00,
2013-02-13 11:31:00,40.0,30.0,-100.00,WNW,295,7.0,10.0,68,0.00,,,-99.99,,2013-02-13 17:31:00,
2013-02-13 11:41:00,40.0,30.0,-100.00,WNW,295,7.0,10.0,68,0.00,,,-99.99,,2013-02-13 17:41:00,
2013-02-13 11:52:00,40.0,30.0,-100.00,WNW,285,10.0,14.0,68,0.00,,,-99.99,,2013-02-13 17:52:00,
2013-02-13 12:01:00,40.0,30.0,-100.00,WNW,285,10.0,14.0,68,0.00,,,-99.99,,2013-02-13 18:01:00,
2013-02-13 12:11:00,41.0,30.0,-100.00,WNW,300,8.0,14.0,65,0.00,,,-99.99,,2013-02-13 18:11:00,
2013-02-13 12:22:00,41.0,31.0,-100.00,WNW,285,7.0,14.0,65,0.00,,,-99.99,,2013-02-13 18:22:00,
2013-02-13 12:32:00,43.0,31.0,-100.00,WNW,285,7.0,12.0,63,0.00,,,-99.99,,2013-02-13 18:32:00,
2013-02-13 12:41:00,43.0,31.0,-100.00,WNW,285,7.0,12.0,63,0.00,,,-99.99,,2013-02-13 18:41:00,
2013-02-13 12:52:00,43.0,32.0,-100.00,NW,310,7.0,12.0,64,0.00,,,-99.99,,2013-02-13 18:52:00,
2013-02-13 13:01:00,43.0,32.0,-100.00,NW,310,7.0,12.0,64,0.00,,,-99.99,,2013-02-13 19:01:00,
2013-02-13 13:11:00,44.0,32.0,-100.00,WNW,285,9.0,14.0,61,0.00,,,-99.99,,2013-02-13 19:11:00,
2013-02-13 13:21:00,44.0,32.0,-100.00,NW,305,8.0,14.0,62,0.00,,,-99.99,,2013-02-13 19:21:00,
2013-02-13 13:31:00,45.0,32.0,-100.00,WNW,295,11.0,15.0,60,0.00,,,-99.99,,2013-02-13 19:31:00,
2013-02-13 13:41:00,45.0,32.0,-100.00,WNW,295,11.0,15.0,60,0.00,,,-99.99,,2013-02-13 19:41:00,
2013-02-13 13:51:00,46.0,33.0,-100.00,NW,315,9.0,16.0,59,0.00,,,-99.99,,2013-02-13 19:51:00,
2013-02-13 14:02:00,46.0,33.0,-100.00,NW,315,9.0,16.0,59,0.00,,,-99.99,,2013-02-13 20:02:00,
2013-02-13 14:11:00,46.0,32.0,-100.00,WNW,300,9.0,13.0,57,0.00,,,-99.99,,2013-02-13 20:11:00,
2013-02-13 14:21:00,46.0,33.0,-100.00,NW,320,11.0,16.0,59,0.00,,,-99.99,,2013-02-13 20:21:00,
2013-02-13 14:31:00,47.0,32.0,-100.00,West,280,7.0,12.0,55,0.00,,,-99.99,,2013-02-13 20:31:00,
2013-02-13 14:41:00,47.0,32.0,-100.00,West,280,7.0,12.0,55,0.00,,,-99.99,,2013-02-13 20:41:00,
2013-02-13 14:52:00,48.0,32.0,-100.00,NW,305,6.0,12.0,54,0.00,,,-99.99,,2013-02-13 20:52:00,
2013-02-13 15:01:00,48.0,32.0,-100.00,NW,305,6.0,12.0,54,0.00,,,-99.99,,2013-02-13 21:01:00,
2013-02-13 15:11:00,49.0,33.0,-100.00,WNW,295,6.0,12.0,53,0.00,,,-99.99,,2013-02-13 21:11:00,
2013-02-13 15:21:00,49.0,32.0,-100.00,NW,305,7.0,12.0,51,0.00,,,-99.99,,2013-02-13 21:21:00,
2013-02-13 15:31:00,50.0,33.0,-100.00,SW,230,4.0,9.0,52,0.00,,,-99.99,,2013-02-13 21:31:00,
2013-02-13 15:42:00,50.0,32.0,-100.00,WSW,240,6.0,11.0,49,0.00,,,-99.99,,2013-02-13 21:42:00,
2013-02-13 15:52:00,50.0,33.0,-100.00,WSW,240,7.0,12.0,51,0.00,,,-99.99,,2013-02-13 21:52:00,
2013-02-13 16:02:00,50.0,33.0,-100.00,WSW,240,7.0,12.0,51,0.00,,,-99.99,,2013-02-13 22:02:00,
2013-02-13 16:11:00,50.0,34.0,-100.00,SW,235,7.0,13.0,53,0.00,,,-99.99,,2013-02-13 22:11:00,
2013-02-13 16:21:00,50.0,32.0,-100.00,SW,230,7.0,12.0,50,0.00,,,-99.99,,2013-02-13 22:21:00,
2013-02-13 16:31:00,50.0,32.0,-100.00,WSW,245,7.0,11.0,49,0.00,,,-99.99,,2013-02-13 22:31:00,
2013-02-13 16:42:00,50.0,32.0,-100.00,WSW,245,8.0,14.0,49,0.00,,,-99.99,,2013-02-13 22:42:00,
2013-02-13 16:51:00,49.0,33.0,-100.00,WSW,240,5.0,12.0,53,0.00,,,-99.99,,2013-02-13 22:51:00,
2013-02-13 17:01:00,49.0,33.0,-100.00,WSW,240,5.0,12.0,53,0.00,,,-99.99,,2013-02-13 23:01:00,
2013-02-13 17:11:00,48.0,33.0,-100.00,WSW,240,4.0,9.0,56,0.00,,,-99.99,,2013-02-13 23:11:00,
2013-02-13 17:21:00,47.0,33.0,-100.00,SW,230,4.0,9.0,58,0.00,,,-99.99,,2013-02-13 23:21:00,
2013-02-13 17:32:00,44.0,33.0,-100.00,SW,230,6.0,7.0,67,0.00,,,-99.99,,2013-02-13 23:32:00,
2013-02-13 17:41:00,44.0,33.0,-100.00,SW,230,6.0,7.0,67,0.00,,,-99.99,,2013-02-13 23:41:00,
2013-02-13 17:52:00,42.0,33.0,-100.00,WSW,245,3.0,6.0,70,0.00,,,-99.99,,2013-02-13 23:52:00,
2013-02-13 18:02:00,42.0,33.0,-100.00,WSW,245,3.0,6.0,70,0.00,,,-99.99,,2013-02-14 00:02:00,
2013-02-13 18:11:00,42.0,33.0,-100.00,SSW,210,4.0,4.0,69,0.00,,,-99.99,,2013-02-14 00:11:00,
2013-02-13 18:21:00,40.0,33.0,-100.00,WSW,245,3.0,6.0,75,0.00,,,-99.99,,2013-02-14 00:21:00,
2013-02-13 18:32:00,39.0,32.0,-100.00,SW,230,2.0,6.0,76,0.00,,,-99.99,,2013-02-14 00:32:00,
2013-02-13 18:51:00,40.0,31.0,-100.00,WSW,250,2.0,3.0,71,0.00,,,-99.99,,2013-02-14 00:51:00,
2013-02-13 19:01:00,40.0,31.0,-100.00,WSW,250,2.0,3.0,71,0.00,,,-99.99,,2013-02-14 01:01:00,
2013-02-13 19:11:00,39.0,32.0,-100.00,SW,230,4.0,6.0,77,0.00,,,-99.99,,2013-02-14 01:11:00,
2013-02-13 19:21:00,38.0,32.0,-100.00,SW,235,4.0,6.0,79,0.00,,,-99.99,,2013-02-14 01:21:00,
2013-02-13 19:31:00,39.0,33.0,-100.00,SW,230,4.0,6.0,77,0.00,,,-99.99,,2013-02-14 01:31:00,
2013-02-13 19:41:00,39.0,33.0,-100.00,SW,230,4.0,6.0,77,0.00,,,-99.99,,2013-02-14 01:41:00,
2013-02-13 19:51:00,40.0,32.0,-100.00,WSW,240,3.0,6.0,72,0.00,,,-99.99,,2013-02-14 01:51:00,
2013-02-13 20:01:00,40.0,32.0,-100.00,WSW,240,3.0,6.0,72,0.00,,,-99.99,,2013-02-14 02:01:00,
2013-02-13 20:11:00,40.0,32.0,-100.00,WSW,245,4.0,7.0,71,0.00,,,-99.99,,2013-02-14 02:11:00,
2013-02-13 20:21:00,40.0,32.0,-100.00,WSW,255,3.0,6.0,71,0.00,,,-99.99,,2013-02-14 02:21:00,
2013-02-13 20:31:00,40.0,32.0,-100.00,WSW,250,2.0,4.0,72,0.00,,,-99.99,,2013-02-14 02:31:00,
2013-02-13 20:41:00,40.0,32.0,-100.00,WSW,250,2.0,4.0,72,0.00,,,-99.99,,2013-02-14 02:41:00,
2013-02-13 20:51:00,40.0,32.0,-100.00,WSW,250,2.0,4.0,72,0.00,,,-99.99,,2013-02-14 02:51:00,
2013-02-13 21:02:00,39.0,32.0,-100.00,SW,230,2.0,5.0,74,0.00,,,-99.99,,2013-02-14 03:02:00,
2013-02-13 21:11:00,39.0,32.0,-100.00,WSW,250,3.0,6.0,74,0.00,,,-99.99,,2013-02-14 03:11:00,
2013-02-13 21:21:00,39.0,31.0,-100.00,WSW,250,3.0,6.0,74,0.00,,,-99.99,,2013-02-14 03:21:00,
2013-02-13 21:31:00,38.0,32.0,-100.00,SW,235,3.0,7.0,76,0.00,,,-99.99,,2013-02-14 03:31:00,
2013-02-13 21:42:00,38.0,32.0,-100.00,SW,235,3.0,7.0,76,0.00,,,-99.99,,2013-02-14 03:42:00,
2013-02-13 21:51:00,38.0,32.0,-100.00,SW,235,4.0,7.0,78,0.00,,,-99.99,,2013-02-14 03:51:00,
2013-02-13 22:01:00,38.0,32.0,-100.00,SW,235,4.0,7.0,78,0.00,,,-99.99,,2013-02-14 04:01:00,
2013-02-13 22:11:00,38.0,32.0,-100.00,SW,235,4.0,7.0,78,0.00,,,-99.99,,2013-02-14 04:11:00,
2013-02-13 22:21:00,38.0,32.0,-100.00,SW,235,4.0,7.0,78,0.00,,,-99.99,,2013-02-14 04:21:00,
2013-02-13 22:31:00,39.0,31.0,-100.00,WSW,250,6.0,7.0,73,0.00,,,-99.99,,2013-02-14 04:31:00,
2013-02-13 22:41:00,39.0,31.0,-100.00,WSW,250,6.0,7.0,73,0.00,,,-99.99,,2013-02-14 04:41:00,
2013-02-13 22:52:00,40.0,31.0,-100.00,WSW,255,6.0,9.0,71,0.00,,,-99.99,,2013-02-14 04:52:00,
2013-02-13 23:02:00,40.0,31.0,-100.00,WSW,255,6.0,9.0,71,0.00,,,-99.99,,2013-02-14 05:02:00,
2013-02-13 23:11:00,40.0,31.0,-100.00,West,270,7.0,12.0,69,0.00,,,-99.99,,2013-02-14 05:11:00,
2013-02-13 23:21:00,41.0,31.0,-100.00,West,280,9.0,13.0,69,0.00,,,-99.99,,2013-02-14 05:21:00,
2013-02-13 23:32:00,41.0,32.0,-100.00,WNW,285,12.0,17.0,69,0.00,,,-99.99,,2013-02-14 05:32:00,
2013-02-13 23:41:00,41.0,32.0,-100.00,WNW,285,12.0,17.0,69,0.00,,,-99.99,,2013-02-14 05:41:00,
2013-02-13 23:52:00,42.0,32.0,-100.00,WNW,295,9.0,16.0,68,0.00,,,-99.99,,2013-02-14 05:52:00,